Time,TemperatureF,DewpointF,PressureIn,WindDirection,WindDirectionDegrees,WindSpeedMPH,WindSpeedGustMPH,Humidity,HourlyPrecipIn,Conditions,Clouds,dailyrainin,SoftwareType,DateUTC
2013-01-24 00:03:00,17.0,13.0,-100.00,WSW,250,7.0,12.0,84,0.00,,,-99.99,,2013-01-24 05:03:00,
2013-01-24 00:12:00,17.0,13.0,-100.00,West,275,9.0,15.0,83,3.94,,,-99.99,,2013-01-24 05:12:00,
2013-01-24 00:22:00,18.0,13.0,-100.00,WNW,285,7.0,12.0,83,8.50,,,-99.99,,2013-01-24 05:22:00,
2013-01-24 00:33:00,17.0,13.0,-100.00,WNW,285,10.0,16.0,82,0.00,,,-99.99,,2013-01-24 05:33:00,
2013-01-24 00:42:00,18.0,13.0,-100.00,WNW,290,9.0,16.0,82,0.00,,,-99.99,,2013-01-24 05:42:00,
2013-01-24 00:52:00,18.0,13.0,-100.00,West,270,12.0,21.0,83,0.00,,,-99.99,,2013-01-24 05:52:00,
2013-01-24 01:03:00,18.0,13.0,-100.00,WNW,285,16.0,22.0,83,0.55,,,-99.99,,2013-01-24 06:03:00,
2013-01-24 01:12:00,18.0,13.0,-100.00,WNW,285,16.0,22.0,83,0.55,,,-99.99,,2013-01-24 06:12:00,
2013-01-24 01:22:00,18.0,13.0,-100.00,WNW,285,13.0,20.0,83,4.53,,,-99.99,,2013-01-24 06:22:00,
2013-01-24 01:32:00,17.0,13.0,-100.00,WNW,295,13.0,17.0,81,0.00,,,-99.99,,2013-01-24 06:32:00,
2013-01-24 01:42:00,17.0,12.0,-100.00,WNW,295,12.0,20.0,80,0.00,,,-99.99,,2013-01-24 06:42:00,
2013-01-24 01:53:00,17.0,12.0,-100.00,WNW,300,15.0,21.0,78,0.00,,,-99.99,,2013-01-24 06:53:00,
2013-01-24 02:03:00,17.0,12.0,-100.00,WNW,300,15.0,22.0,79,0.00,,,-99.99,,2013-01-24 07:03:00,
2013-01-24 02:12:00,17.0,12.0,-100.00,NW,305,17.0,24.0,80,0.00,,,-99.99,,2013-01-24 07:12:00,
2013-01-24 02:23:00,17.0,12.0,-100.00,NW,305,16.0,21.0,83,0.55,,,-99.99,,2013-01-24 07:23:00,
2013-01-24 02:33:00,16.0,12.0,-100.00,NW,320,15.0,21.0,82,0.00,,,-99.99,,2013-01-24 07:33:00,
2013-01-24 02:43:00,16.0,10.0,-100.00,NW,315,16.0,21.0,78,0.00,,,-99.99,,2013-01-24 07:43:00,
2013-01-24 02:52:00,15.0,8.0,-100.00,NW,315,14.0,21.0,74,0.00,,,-99.99,,2013-01-24 07:52:00,
2013-01-24 03:02:00,15.0,8.0,-100.00,NW,315,17.0,22.0,73,0.00,,,-99.99,,2013-01-24 08:02:00,
2013-01-24 03:12:00,14.0,7.0,-100.00,NW,320,14.0,21.0,72,0.00,,,-99.99,,2013-01-24 08:12:00,
2013-01-24 03:23:00,14.0,7.0,-100.00,NW,315,14.0,20.0,72,0.00,,,-99.99,,2013-01-24 08:23:00,
2013-01-24 03:33:00,13.0,6.0,-100.00,NW,320,11.0,17.0,73,0.00,,,-99.99,,2013-01-24 08:33:00,
2013-01-24 03:43:00,13.0,6.0,-100.00,NW,310,10.0,16.0,73,0.00,,,-99.99,,2013-01-24 08:43:00,
2013-01-24 03:52:00,13.0,6.0,-100.00,NW,315,12.0,17.0,73,0.00,,,-99.99,,2013-01-24 08:52:00,
2013-01-24 04:03:00,13.0,5.0,-100.00,NW,315,12.0,21.0,72,0.00,,,-99.99,,2013-01-24 09:03:00,
2013-01-24 04:13:00,12.0,5.0,-100.00,NW,310,13.0,17.0,72,0.00,,,-99.99,,2013-01-24 09:13:00,
2013-01-24 04:23:00,12.0,5.0,-100.00,NW,315,12.0,17.0,74,0.00,,,-99.99,,2013-01-24 09:23:00,
2013-01-24 04:33:00,12.0,5.0,-100.00,NW,310,12.0,16.0,74,0.00,,,-99.99,,2013-01-24 09:33:00,
2013-01-24 04:43:00,11.0,5.0,-100.00,NW,305,10.0,16.0,74,0.00,,,-99.99,,2013-01-24 09:43:00,
2013-01-24 04:52:00,11.0,5.0,-100.00,NW,310,12.0,15.0,75,0.00,,,-99.99,,2013-01-24 09:52:00,
2013-01-24 05:03:00,11.0,5.0,-100.00,NW,320,9.0,18.0,76,0.00,,,-99.99,,2013-01-24 10:03:00,
2013-01-24 05:12:00,11.0,5.0,-100.00,NW,315,9.0,14.0,76,0.00,,,-99.99,,2013-01-24 10:12:00,
2013-01-24 05:23:00,10.0,4.0,-100.00,NW,320,9.0,14.0,76,0.00,,,-99.99,,2013-01-24 10:23:00,
2013-01-24 05:33:00,10.0,4.0,-100.00,NW,320,9.0,12.0,77,0.00,,,-99.99,,2013-01-24 10:33:00,
2013-01-24 05:43:00,10.0,4.0,-100.00,NW,320,9.0,14.0,77,0.00,,,-99.99,,2013-01-24 10:43:00,
2013-01-24 05:52:00,10.0,4.0,-100.00,NW,315,8.0,14.0,77,0.00,,,-99.99,,2013-01-24 10:52:00,
2013-01-24 06:03:00,9.0,4.0,-100.00,NW,305,6.0,11.0,77,0.00,,,-99.99,,2013-01-24 11:03:00,
2013-01-24 06:12:00,9.0,4.0,-100.00,NW,315,7.0,10.0,78,0.00,,,-99.99,,2013-01-24 11:12:00,
2013-01-24 06:23:00,9.0,4.0,-100.00,NW,315,9.0,12.0,77,0.00,,,-99.99,,2013-01-24 11:23:00,
2013-01-24 06:33:00,9.0,4.0,-100.00,NW,310,7.0,9.0,78,0.00,,,-99.99,,2013-01-24 11:33:00,
2013-01-24 06:43:00,9.0,4.0,-100.00,NW,310,7.0,11.0,78,0.00,,,-99.99,,2013-01-24 11:43:00,
2013-01-24 06:53:00,9.0,4.0,-100.00,NW,315,7.0,10.0,78,0.00,,,-99.99,,2013-01-24 11:53:00,
2013-01-24 07:03:00,9.0,3.0,-100.00,NW,320,6.0,10.0,78,0.00,,,-99.99,,2013-01-24 12:03:00,
2013-01-24 07:12:00,8.0,3.0,-100.00,NW,315,6.0,9.0,78,0.00,,,-99.99,,2013-01-24 12:12:00,
2013-01-24 07:23:00,8.0,3.0,-100.00,NW,305,4.0,9.0,79,0.00,,,-99.99,,2013-01-24 12:23:00,
2013-01-24 07:33:00,8.0,3.0,-100.00,WNW,300,4.0,6.0,80,0.00,,,-99.99,,2013-01-24 12:33:00,
2013-01-24 07:43:00,8.0,3.0,-100.00,WNW,295,3.0,6.0,81,0.00,,,-99.99,,2013-01-24 12:43:00,
2013-01-24 07:53:00,8.0,3.0,-100.00,WNW,295,4.0,6.0,82,0.00,,,-99.99,,2013-01-24 12:53:00,
2013-01-24 08:03:00,8.0,3.0,-100.00,NW,305,6.0,7.0,83,0.00,,,-99.99,,2013-01-24 13:03:00,
2013-01-24 08:13:00,8.0,4.0,-100.00,NW,305,6.0,7.0,83,0.00,,,-99.99,,2013-01-24 13:13:00,
2013-01-24 08:23:00,8.0,4.0,-100.00,NW,310,5.0,7.0,82,0.00,,,-99.99,,2013-01-24 13:23:00,
2013-01-24 08:33:00,8.0,4.0,-100.00,NW,325,4.0,6.0,82,0.00,,,-99.99,,2013-01-24 13:33:00,
2013-01-24 08:43:00,8.0,4.0,-100.00,NW,315,4.0,6.0,82,0.00,,,-99.99,,2013-01-24 13:43:00,
2013-01-24 08:53:00,8.0,4.0,-100.00,NW,325,4.0,6.0,82,0.00,,,-99.99,,2013-01-24 13:53:00,
2013-01-24 09:03:00,8.0,4.0,-100.00,NW,315,6.0,9.0,82,0.00,,,-99.99,,2013-01-24 14:03:00,
2013-01-24 09:12:00,8.0,4.0,-100.00,NW,315,6.0,9.0,82,0.00,,,-99.99,,2013-01-24 14:12:00,
2013-01-24 09:23:00,9.0,4.0,-100.00,NW,315,7.0,9.0,80,0.00,,,-99.99,,2013-01-24 14:23:00,
2013-01-24 09:33:00,9.0,4.0,-100.00,NW,320,5.0,9.0,80,0.00,,,-99.99,,2013-01-24 14:33:00,
2013-01-24 09:43:00,9.0,4.0,-100.00,NW,315,6.0,9.0,79,0.00,,,-99.99,,2013-01-24 14:43:00,
2013-01-24 09:54:00,10.0,5.0,-100.00,NW,315,6.0,9.0,79,0.00,,,-99.99,,2013-01-24 14:54:00,
2013-01-24 10:04:00,10.0,5.0,-100.00,NW,310,8.0,11.0,79,0.00,,,-99.99,,2013-01-24 15:04:00,
2013-01-24 10:12:00,10.0,5.0,-100.00,NW,315,7.0,12.0,78,0.00,,,-99.99,,2013-01-24 15:12:00,
2013-01-24 10:23:00,11.0,5.0,-100.00,NW,310,7.0,11.0,77,0.00,,,-99.99,,2013-01-24 15:23:00,
2013-01-24 10:33:00,11.0,5.0,-100.00,NNW,330,7.0,12.0,75,0.00,,,-99.99,,2013-01-24 15:33:00,
2013-01-24 10:43:00,11.0,5.0,-100.00,NNW,340,7.0,12.0,75,0.00,,,-99.99,,2013-01-24 15:43:00,
2013-01-24 10:53:00,13.0,6.0,-100.00,North,0,4.0,9.0,76,0.00,,,-99.99,,2013-01-24 15:53:00,
2013-01-24 11:04:00,13.0,6.0,-100.00,North,5,4.0,9.0,74,0.00,,,-99.99,,2013-01-24 16:04:00,
2013-01-24 11:12:00,14.0,7.0,-100.00,North,0,6.0,9.0,73,0.00,,,-99.99,,2013-01-24 16:12:00,
2013-01-24 11:23:00,14.0,7.0,-100.00,NNE,20,4.0,7.0,73,0.00,,,-99.99,,2013-01-24 16:23:00,
2013-01-24 11:33:00,15.0,8.0,-100.00,NNW,335,5.0,10.0,71,0.00,,,-99.99,,2013-01-24 16:33:00,
2013-01-24 11:42:00,15.0,8.0,-100.00,NNW,335,5.0,10.0,71,0.00,,,-99.99,,2013-01-24 16:42:00,
2013-01-24 12:03:00,15.0,7.0,-100.00,NNE,25,6.0,10.0,71,0.00,,,-99.99,,2013-01-24 17:03:00,
2013-01-24 12:12:00,16.0,8.0,-100.00,North,0,4.0,9.0,71,0.00,,,-99.99,,2013-01-24 17:12:00,
2013-01-24 12:22:00,17.0,10.0,-100.00,North,5,6.0,9.0,74,0.00,,,-99.99,,2013-01-24 17:22:00,
2013-01-24 12:32:00,17.0,9.0,-100.00,North,5,5.0,9.0,70,0.00,,,-99.99,,2013-01-24 17:32:00,
2013-01-24 12:42:00,16.0,8.0,-100.00,NNE,20,4.0,12.0,69,0.00,,,-99.99,,2013-01-24 17:42:00,
2013-01-24 12:52:00,16.0,7.0,-100.00,North,10,6.0,11.0,67,0.00,,,-99.99,,2013-01-24 17:52:00,
2013-01-24 13:03:00,16.0,7.0,-100.00,North,10,6.0,11.0,67,0.00,,,-99.99,,2013-01-24 18:03:00,
2013-01-24 13:12:00,17.0,7.0,-100.00,NE,35,4.0,11.0,65,0.00,,,-99.99,,2013-01-24 18:12:00,
2013-01-24 13:22:00,17.0,7.0,-100.00,NE,35,6.0,9.0,64,0.00,,,-99.99,,2013-01-24 18:22:00,
2013-01-24 13:33:00,18.0,8.0,-100.00,ENE,70,6.0,9.0,65,0.00,,,-99.99,,2013-01-24 18:33:00,
2013-01-24 13:42:00,18.0,8.0,-100.00,ENE,75,7.0,12.0,62,0.00,,,-99.99,,2013-01-24 18:42:00,
2013-01-24 13:53:00,18.0,6.0,-100.00,East,90,7.0,18.0,58,0.00,,,-99.99,,2013-01-24 18:53:00,
2013-01-24 14:02:00,18.0,4.0,-100.00,NE,55,5.0,14.0,54,0.00,,,-99.99,,2013-01-24 19:02:00,
2013-01-24 14:12:00,18.0,5.0,-100.00,NE,45,4.0,10.0,56,0.00,,,-99.99,,2013-01-24 19:12:00,
2013-01-24 14:22:00,18.0,5.0,-100.00,NE,50,5.0,9.0,54,0.00,,,-99.99,,2013-01-24 19:22:00,
2013-01-24 14:33:00,19.0,5.0,-100.00,NNE,25,5.0,9.0,53,0.00,,,-99.99,,2013-01-24 19:33:00,
2013-01-24 14:42:00,19.0,6.0,-100.00,ESE,105,5.0,9.0,57,0.00,,,-99.99,,2013-01-24 19:42:00,
2013-01-24 14:52:00,19.0,6.0,-100.00,ENE,75,6.0,8.0,56,0.00,,,-99.99,,2013-01-24 19:52:00,
2013-01-24 15:02:00,19.0,5.0,-100.00,NE,40,6.0,11.0,54,0.00,,,-99.99,,2013-01-24 20:02:00,
2013-01-24 15:11:00,20.0,7.0,-100.00,NNE,25,4.0,8.0,58,0.00,,,-99.99,,2013-01-24 20:11:00,
2013-01-24 15:22:00,19.0,6.0,-100.00,ENE,60,4.0,7.0,56,0.00,,,-99.99,,2013-01-24 20:22:00,
2013-01-24 15:33:00,19.0,6.0,-100.00,ENE,60,4.0,7.0,56,0.00,,,-99.99,,2013-01-24 20:33:00,
2013-01-24 15:42:00,19.0,6.0,-100.00,NNE,30,2.0,9.0,56,0.00,,,-99.99,,2013-01-24 20:42:00,
2013-01-24 15:52:00,19.0,5.0,-100.00,East,95,3.0,6.0,55,0.00,,,-99.99,,2013-01-24 20:52:00,
2013-01-24 16:03:00,19.0,6.0,-100.00,ENE,60,3.0,7.0,56,0.00,,,-99.99,,2013-01-24 21:03:00,
2013-01-24 16:12:00,19.0,6.0,-100.00,East,80,5.0,7.0,57,0.00,,,-99.99,,2013-01-24 21:12:00,
2013-01-24 16:22:00,19.0,6.0,-100.00,East,85,4.0,8.0,57,0.00,,,-99.99,,2013-01-24 21:22:00,
2013-01-24 16:33:00,19.0,5.0,-100.00,East,100,6.0,7.0,55,0.00,,,-99.99,,2013-01-24 21:33:00,
2013-01-24 16:43:00,19.0,5.0,-100.00,East,80,2.0,7.0,55,0.00,,,-99.99,,2013-01-24 21:43:00,
2013-01-24 16:52:00,19.0,6.0,-100.00,East,80,3.0,6.0,57,0.00,,,-99.99,,2013-01-24 21:52:00,
2013-01-24 17:03:00,19.0,6.0,-100.00,ENE,65,4.0,6.0,55,0.00,,,-99.99,,2013-01-24 22:03:00,
2013-01-24 17:12:00,19.0,6.0,-100.00,NE,45,3.0,5.0,57,0.00,,,-99.99,,2013-01-24 22:12:00,
2013-01-24 17:22:00,19.0,5.0,-100.00,NE,45,3.0,6.0,54,0.00,,,-99.99,,2013-01-24 22:22:00,
2013-01-24 17:33:00,18.0,4.0,-100.00,NE,35,2.0,4.0,54,0.00,,,-99.99,,2013-01-24 22:33:00,
2013-01-24 17:42:00,18.0,5.0,-100.00,NE,35,1.0,3.0,56,0.00,,,-99.99,,2013-01-24 22:42:00,
2013-01-24 17:52:00,18.0,6.0,-100.00,ENE,75,3.0,5.0,58,0.00,,,-99.99,,2013-01-24 22:52:00,
2013-01-24 18:03:00,18.0,7.0,-100.00,ENE,75,2.0,4.0,61,0.00,,,-99.99,,2013-01-24 23:03:00,
2013-01-24 18:12:00,18.0,7.0,-100.00,ENE,75,3.0,4.0,62,0.00,,,-99.99,,2013-01-24 23:12:00,
2013-01-24 18:22:00,17.0,8.0,-100.00,NE,40,0.0,5.0,68,0.00,,,-99.99,,2013-01-24 23:22:00,
2013-01-24 18:32:00,16.0,8.0,-100.00,ENE,60,1.0,2.0,71,0.00,,,-99.99,,2013-01-24 23:32:00,
2013-01-24 18:42:00,16.0,9.0,-100.00,East,90,1.0,2.0,72,0.00,,,-99.99,,2013-01-24 23:42:00,
2013-01-24 18:52:00,16.0,8.0,-100.00,East,95,1.0,3.0,71,0.00,,,-99.99,,2013-01-24 23:52:00,
2013-01-24 19:02:00,16.0,8.0,-100.00,East,85,2.0,3.0,69,0.00,,,-99.99,,2013-01-25 00:02:00,
2013-01-24 19:12:00,16.0,8.0,-100.00,East,85,1.0,2.0,70,0.00,,,-99.99,,2013-01-25 00:12:00,
2013-01-24 19:22:00,16.0,7.0,-100.00,East,85,1.0,2.0,67,0.00,,,-99.99,,2013-01-25 00:22:00,
2013-01-24 19:32:00,16.0,7.0,-100.00,East,80,2.0,3.0,67,0.00,,,-99.99,,2013-01-25 00:32:00,
2013-01-24 19:42:00,16.0,7.0,-100.00,East,85,2.0,3.0,69,0.00,,,-99.99,,2013-01-25 00:42:00,
2013-01-24 19:52:00,15.0,7.0,-100.00,East,85,2.0,5.0,69,0.00,,,-99.99,,2013-01-25 00:52:00,
2013-01-24 20:02:00,16.0,8.0,-100.00,East,90,3.0,5.0,70,0.00,,,-99.99,,2013-01-25 01:02:00,
2013-01-24 20:12:00,16.0,7.0,-100.00,East,90,4.0,6.0,68,0.00,,,-99.99,,2013-01-25 01:12:00,
2013-01-24 20:22:00,16.0,8.0,-100.00,East,85,3.0,5.0,69,0.00,,,-99.99,,2013-01-25 01:22:00,
2013-01-24 20:32:00,16.0,8.0,-100.00,East,90,2.0,6.0,70,0.00,,,-99.99,,2013-01-25 01:32:00,
2013-01-24 20:42:00,16.0,9.0,-100.00,East,90,3.0,4.0,72,0.00,,,-99.99,,2013-01-25 01:42:00,
2013-01-24 20:52:00,16.0,9.0,-100.00,East,85,3.0,4.0,73,0.00,,,-99.99,,2013-01-25 01:52:00,
2013-01-24 21:02:00,16.0,9.0,-100.00,East,95,2.0,4.0,73,0.00,,,-99.99,,2013-01-25 02:02:00,
2013-01-24 21:11:00,16.0,8.0,-100.00,East,100,4.0,6.0,71,0.00,,,-99.99,,2013-01-25 02:11:00,
2013-01-24 21:22:00,16.0,8.0,-100.00,ESE,110,4.0,6.0,70,0.00,,,-99.99,,2013-01-25 02:22:00,
2013-01-24 21:32:00,16.0,8.0,-100.00,East,95,5.0,7.0,69,0.00,,,-99.99,,2013-01-25 02:32:00,
2013-01-24 21:42:00,16.0,8.0,-100.00,East,95,5.0,7.0,67,0.00,,,-99.99,,2013-01-25 02:42:00,
2013-01-24 21:52:00,16.0,8.0,-100.00,ESE,115,4.0,7.0,68,0.00,,,-99.99,,2013-01-25 02:52:00,
2013-01-24 22:02:00,17.0,8.0,-100.00,ESE,105,6.0,7.0,68,0.00,,,-99.99,,2013-01-25 03:02:00,
2013-01-24 22:12:00,17.0,8.0,-100.00,ESE,105,6.0,7.0,68,0.00,,,-99.99,,2013-01-25 03:12:00,
2013-01-24 22:22:00,16.0,8.0,-100.00,ESE,115,6.0,9.0,68,0.00,,,-99.99,,2013-01-25 03:22:00,
2013-01-24 22:33:00,16.0,8.0,-100.00,ESE,115,6.0,7.0,69,0.00,,,-99.99,,2013-01-25 03:33:00,
2013-01-24 22:42:00,16.0,8.0,-100.00,ESE,110,6.0,8.0,70,0.00,,,-99.99,,2013-01-25 03:42:00,
2013-01-24 22:53:00,16.0,8.0,-100.00,ESE,105,6.0,9.0,70,0.00,,,-99.99,,2013-01-25 03:53:00,
2013-01-24 23:02:00,16.0,8.0,-100.00,ESE,115,6.0,9.0,69,0.00,,,-99.99,,2013-01-25 04:02:00,
2013-01-24 23:12:00,17.0,9.0,-100.00,ESE,110,6.0,8.0,71,0.00,,,-99.99,,2013-01-25 04:12:00,
2013-01-24 23:22:00,17.0,9.0,-100.00,SE,125,6.0,7.0,70,0.00,,,-99.99,,2013-01-25 04:22:00,
2013-01-24 23:32:00,17.0,8.0,-100.00,ESE,105,7.0,9.0,69,0.00,,,-99.99,,2013-01-25 04:32:00,
2013-01-24 23:42:00,17.0,8.0,-100.00,ESE,105,7.0,9.0,69,0.00,,,-99.99,,2013-01-25 04:42:00,
2013-01-24 23:51:00,17.0,8.0,-100.00,ESE,110,7.0,11.0,68,0.00,,,-99.99,,2013-01-25 04:51:00,